Date String (YYYY-MM-DD hh:mm:ss) UTC,Instrument flags,absolute air pressure of the measurement (hPa),sample flow rate (lpm),inlet stack bypass flow (lpm),air temperature of the measurement (°C),ambient temperature measured by the external sensor (°C),aerosol sample conditioner tube jacket temperature (°C),OPC LED temperature (°C),internal box temperature (°C),relative humidity of the measurement (%),span deviation,mass concentration of particles derived from Lorenz-Mie calculation of OPC scattering (μg/m³),mass concentration of particles derived from Lorenz-Mie calculation of OPC scattering (μg/m³),mass concentration of particles derived from Lorenz-Mie calculation of OPC scattering (μg/m³)
DateTimeUTC,F1_M11,P_M11,Q1_M11,Q2_M11,T1_M11,T2_M11,T3_M11,T4_M11,T5_M11,U1_M11,ZSPAN_M11,X0_M11,X2_M11,X1_M11
2023-07-05 05:00:00,SystemResetWarning,0837.7,4.99,000.00,029.5,027.2,000.0,038.2,031.0,32.8,0000.0,0006.11,0003.96,0003.56
2023-07-05 05:01:00,SystemResetWarning,0837.6,4.99,000.00,029.5,027.5,000.0,038.2,031.0,32.8,0000.0,0006.85,0003.97,0003.55
2023-07-05 05:02:00,SystemResetWarning,0837.7,5.01,000.00,029.5,027.7,000.0,038.2,031.0,32.8,0000.0,0007.43,0003.96,0003.54
2023-07-05 05:03:00,SystemResetWarning,0837.6,5.00,000.00,029.5,027.8,000.0,038.2,031.1,32.8,0000.0,0007.45,0003.96,0003.53
2023-07-05 05:04:00,SystemResetWarning,0837.6,5.01,000.00,029.5,028.0,000.0,038.2,031.1,32.8,0000.0,0007.52,0003.98,0003.54
2023-07-05 05:05:00,SystemResetWarning,0837.6,5.00,000.00,029.6,028.1,000.0,038.2,031.1,32.7,0000.0,0007.58,0004.00,0003.54
2023-07-05 05:06:00,SystemResetWarning,0837.6,4.99,000.00,029.6,028.2,000.0,038.2,031.2,32.8,0000.0,0007.55,0003.97,0003.52
2023-07-05 05:07:00,SystemResetWarning,0837.6,5.00,000.00,029.6,028.2,000.0,038.2,031.2,32.8,0000.0,0007.51,0003.94,0003.51
2023-07-05 05:08:00,SystemResetWarning,0837.6,5.00,000.00,029.6,028.3,000.0,038.2,031.2,32.8,0000.0,0007.49,0003.94,0003.51
2023-07-05 05:09:00,SystemResetWarning,0837.6,5.00,000.00,029.6,028.4,000.0,038.2,031.3,32.9,0000.0,0007.53,0003.96,0003.51
2023-07-05 05:10:00,SystemResetWarning,0837.7,5.00,000.00,029.7,028.4,000.0,038.2,031.3,32.8,0000.0,0007.44,0003.93,0003.50
2023-07-05 05:11:00,SystemResetWarning,0837.6,5.00,000.00,029.7,028.5,000.0,038.2,031.3,32.8,0000.0,0007.37,0003.88,0003.49
2023-07-05 05:12:00,SystemResetWarning,0837.6,5.00,000.00,029.7,028.5,000.0,038.2,031.3,32.6,0000.0,0006.71,0003.89,0003.49
2023-07-05 05:13:00,SystemResetWarning,0837.7,5.00,000.00,029.7,028.6,000.0,038.3,031.3,32.5,0000.0,0006.11,0003.88,0003.50
2023-07-05 05:14:00,SystemResetWarning,0837.7,5.00,000.00,029.8,028.6,000.0,038.3,031.4,32.5,0000.0,0006.06,0003.87,0003.49
2023-07-05 05:15:00,SystemResetWarning,0837.8,5.00,000.00,029.8,028.6,000.0,038.3,031.4,32.4,0000.0,0005.95,0003.85,0003.49
2023-07-05 05:16:00,SystemResetWarning,0837.8,5.00,000.00,029.8,028.6,000.0,038.3,031.4,32.3,0000.0,0005.90,0003.83,0003.48
2023-07-05 05:17:00,SystemResetWarning,0837.8,5.00,000.00,029.8,028.7,000.0,038.3,031.4,32.4,0000.0,0005.92,0003.84,0003.49
2023-07-05 05:18:00,SystemResetWarning,0838.0,5.00,000.00,029.8,028.7,000.0,038.3,031.4,32.4,0000.0,0005.88,0003.84,0003.51
2023-07-05 05:19:00,SystemResetWarning,0838.0,4.99,000.00,029.9,028.7,000.0,038.3,031.5,32.3,0000.0,0005.88,0003.84,0003.52
2023-07-05 05:20:00,SystemResetWarning,0838.0,5.00,000.00,029.9,028.8,000.0,038.4,031.5,32.3,0000.0,0005.89,0003.83,0003.52
2023-07-05 05:21:00,SystemResetWarning,0838.1,5.00,000.00,029.9,028.8,000.0,038.4,031.5,32.3,0000.0,0006.00,0003.84,0003.54
2023-07-05 05:22:00,SystemResetWarning,0838.2,5.00,000.00,029.9,028.4,000.0,038.4,031.5,32.3,0000.0,0006.02,0003.86,0003.56
2023-07-05 05:23:00,SystemResetWarning,0838.2,5.00,000.00,029.9,026.5,000.0,038.2,031.3,32.3,0000.0,0005.98,0003.88,0003.58
2023-07-05 05:24:00,SystemResetWarning,0838.2,5.00,000.00,029.8,025.3,000.0,038.1,031.0,32.5,0000.0,0006.08,0003.91,0003.60
2023-07-05 05:25:00,SystemResetWarning,0838.2,5.01,000.00,029.7,025.2,000.0,038.1,030.7,32.8,0000.0,0006.25,0003.94,0003.61
2023-07-05 05:26:00,SystemResetWarning,0838.2,5.01,000.00,029.5,025.6,000.0,038.1,030.6,33.0,0000.0,0006.26,0003.95,0003.63
2023-07-05 05:27:00,SystemResetWarning,0838.2,4.99,000.00,029.5,026.0,000.0,038.1,030.7,33.1,0000.0,0006.22,0003.95,0003.65
2023-07-05 05:28:00,SystemResetWarning,0838.2,4.99,000.00,029.4,026.4,000.0,038.1,030.8,33.1,0000.0,0006.42,0003.99,0003.68
2023-07-05 05:29:00,SystemResetWarning,0838.2,5.01,000.00,029.4,026.7,000.0,038.1,030.8,33.2,0000.0,0006.59,0004.03,0003.70
2023-07-05 05:30:00,SystemResetWarning,0838.2,5.00,000.00,029.4,027.1,000.0,038.1,030.9,33.3,0000.0,0006.69,0004.05,0003.71
2023-07-05 05:31:00,SystemResetWarning,0838.2,4.99,000.00,029.4,027.3,000.0,038.1,030.9,33.3,0000.0,0006.57,0004.05,0003.72
2023-07-05 05:32:00,SystemResetWarning,0838.0,5.00,000.00,029.4,027.5,000.0,038.1,031.0,33.4,0000.0,0006.43,0004.06,0003.74
2023-07-05 05:33:00,SystemResetWarning,0838.0,5.00,000.00,029.4,027.7,000.0,038.1,031.0,33.4,0000.0,0006.37,0004.07,0003.75
2023-07-05 05:34:00,SystemResetWarning,0838.0,5.00,000.00,029.5,027.8,000.0,038.1,031.0,33.3,0000.0,0006.27,0004.06,0003.75
2023-07-05 05:35:00,SystemResetWarning,0838.0,5.00,000.00,029.5,027.9,000.0,038.1,031.0,33.3,0000.0,0006.18,0004.05,0003.74
2023-07-05 05:36:00,SystemResetWarning,0838.1,5.01,000.00,029.5,028.0,000.0,038.1,031.1,33.4,0000.0,0006.16,0004.05,0003.74
2023-07-05 05:37:00,SystemResetWarning,0838.0,5.01,000.00,029.5,028.1,000.0,038.1,031.1,33.3,0000.0,0007.11,0004.02,0003.74
2023-07-05 05:38:00,SystemResetWarning,0838.0,5.01,000.00,029.5,028.2,000.0,038.1,031.2,33.2,0000.0,0007.05,0004.02,0003.74
2023-07-05 05:39:00,SystemResetWarning,0838.0,5.00,000.00,029.6,028.3,000.0,038.1,031.2,33.2,0000.0,0006.86,0003.98,0003.71
2023-07-05 05:40:00,SystemResetWarning,0838.0,5.00,000.00,029.6,028.3,000.0,038.1,031.2,33.2,0000.0,0006.79,0003.98,0003.69
2023-07-05 05:41:00,SystemResetWarning,0838.0,5.00,000.00,029.6,028.4,000.0,038.2,031.2,33.3,0000.0,0007.53,0003.98,0003.68
2023-07-05 05:42:00,SystemResetWarning,0838.0,5.01,000.00,029.6,028.4,000.0,038.2,031.3,33.2,0000.0,0008.03,0003.98,0003.67
2023-07-05 05:43:00,SystemResetWarning,0837.9,5.00,000.00,029.7,028.5,000.0,038.2,031.3,33.0,0000.0,0008.08,0003.99,0003.66
2023-07-05 05:44:00,SystemResetWarning,0837.8,5.00,000.00,029.7,028.5,000.0,038.2,031.3,33.1,0000.0,0008.08,0003.98,0003.63
2023-07-05 05:45:00,SystemResetWarning,0837.7,4.99,000.00,029.7,028.5,000.0,038.2,031.3,33.2,0000.0,0008.17,0003.98,0003.62
2023-07-05 05:46:00,SystemResetWarning,0837.7,4.99,000.00,029.7,028.6,000.0,038.2,031.3,33.1,0000.0,0008.24,0003.97,0003.61
2023-07-05 05:47:00,SystemResetWarning,0837.8,5.00,000.00,029.7,028.6,000.0,038.2,031.4,33.0,0000.0,0008.46,0003.97,0003.59
2023-07-05 05:48:00,SystemResetWarning,0837.8,5.02,000.00,029.8,028.6,000.0,038.3,031.4,32.9,0000.0,0008.02,0003.98,0003.59
2023-07-05 05:49:00,SystemResetWarning,0837.8,5.00,000.00,029.8,028.6,000.0,038.3,031.4,32.9,0000.0,0008.02,0003.98,0003.60
2023-07-05 05:50:00,SystemResetWarning,0837.8,4.98,000.00,029.8,028.7,000.0,038.3,031.4,32.9,0000.0,0008.08,0004.01,0003.62
2023-07-05 05:51:00,SystemResetWarning,0837.8,5.00,000.00,029.8,028.7,000.0,038.3,031.4,32.9,0000.0,0008.04,0004.00,0003.62
2023-07-05 05:52:00,SystemResetWarning,0837.8,5.00,000.00,029.9,028.7,000.0,038.3,031.5,32.8,0000.0,0007.35,0003.99,0003.64
2023-07-05 05:53:00,SystemResetWarning,0837.8,5.01,000.00,029.9,028.7,000.0,038.3,031.5,32.7,0000.0,0006.83,0004.01,0003.66
2023-07-05 05:54:00,SystemResetWarning,0837.8,5.00,000.00,029.9,028.8,000.0,038.4,031.5,32.7,0000.0,0006.93,0004.03,0003.68
2023-07-05 05:55:00,SystemResetWarning,0837.8,5.00,000.00,029.9,028.8,000.0,038.4,031.5,32.7,0000.0,0007.84,0004.06,0003.71
2023-07-05 05:56:00,SystemResetWarning,0837.9,5.00,000.00,029.9,028.6,000.0,038.4,031.5,32.7,0000.0,0007.92,0004.08,0003.73
2023-07-05 05:57:00,SystemResetWarning,0837.8,4.98,000.00,029.9,026.7,000.0,038.3,031.3,32.7,0000.0,0007.89,0004.10,0003.76
2023-07-05 05:58:00,SystemResetWarning,0837.8,5.01,000.00,029.8,025.4,000.0,038.2,031.1,32.8,0000.0,0007.71,0004.13,0003.78
2023-07-05 05:59:00,SystemResetWarning,0837.8,5.01,000.00,029.7,025.2,000.0,038.1,030.8,32.9,0000.0,0007.85,0004.17,0003.80
